DECAYED

STARLINK-2463, 48122 (Decayed)

Orbit data source: Space-Track

STARLINK-2463, 48122 was a payload satellite owned by SpaceX/Seattle (US) in LEO that was launched on Wed, 07 Apr 2021 UTC via an FALCON 9 launch vehicle from the Air Force Eastern Test Range (AFETR). Payload-class satellites include a variety of spacecraft equipped with specific instruments for various scientific and technological missions. These include communications satellites like Starlink; space stations such as the ISS; scientific satellites like the Hubble; Earth observation satellites from companies like Planet Labs, Umbra, and HawkEye 360; GPS; miniature CubeSats for education and research; and military/defense satellites.

Not visible in the next 10 days
Identifier
48122, 2021-027AG
Orbit
Decayed
Country
Flag of USUS
Related business
Manufacturer
SpaceX/Seattle
Mission
Decayed Commercial Communications
Bus & Motor
STARLINK, Unknown motor
Mass
260 kg wet, ~248 kg dry
Launch date (UTC)
2021-04-07 (5 years ago)
Launch vehicle
FALCON 9
Launch site
Air Force Eastern Test Range (AFETR)
Object type
Payload
Rocket body
Debris
Shape & HBR
Box + 1 Pan, 10.1 m
Radar Cross Section
13.562 m², Large (>1 m²)

Expand to show TLE details & history
Last TLE update: 1 year ago

TLE from 1 year ago
0 STARLINK-2463
1 48122U 21027AG  25010.74341803  .21670519  12616-4  39791-3 0  9990
2 48122  53.0267 234.2612 0005911 301.6440 137.4657 16.47213842208771
Epoch: 2025-01-10T17:50Z
TLE epoch observation values (Epoch: 2025-01-10T17:50:31.317Z)
Latitude
51.84607°
Longitude
-71.5597°
Altitude
155.698 km
Speed
7.818 km/s
True Right ascension
20h 26m 17s
True Declination
51° 39' 48"
Sunlit
Object was in daylight at epoch
Visualization orbit readout
Latitude
Unknown
Longitude
Unknown
Altitude
Unknown
Speed
Unknown
Apparent Right ascension
Unknown
Apparent Declination
Unknown
Sunlit
N/A
Visualization observer readout
Local Sidereal Time
00:29:12
Azimuth
Unknown
Elevation
Unknown
Doppler factor
Unknown
Orbital elements
Apogee altitude
150.831 km
Perigee altitude
143.117 km
Semi-major axis
6,525.111 km
Eccentricity
0.00059
Inclination
53.0267°
RAAN
234.2612°
Arg. of periapsis
301.644°
True anomaly
137.51147°
Mean anomaly
137.4657°
Eccentric anomaly
137.48859°
Mean motion
4.11776 °/min
Orbital period
87.43 mins
BSTAR
0.00039791
Loading maneuver chart data...
Computing Atmospheric mass density...

Documentation

Showing up to 5 results
|